Tracking 19562 objects as of 25-Mar-2019
HD Live streaming from Space Station
objects crossing your sky now

RADUGA 3

Track RADUGA 3 now!
RADUGA 3 is classified as:


NORAD ID: 10159
Int'l Code: 1977-071A
Perigee: 35,750.2 km
Apogee: 35,797.6 km
Inclination: 10.5 °
Period: 1,435.1 minutes
Semi major axis: 42144 km
RCS: 1.2589 m2 (large)
Launch date: July 23, 1977
Source: Commonwealth of Independent States (former USSR) (CIS)
Launch site: TYURATAM MISSILE AND SPACE COMPLEX (TTMTR)
aabbcc
Your satellite tracking list
Your tracking list is empty




NASA's NSSDC Master Catalog

Two Line Element Set (TLE):
1 10159U 77071A   19083.75211360  .00000045  00000-0  00000+0 0  9992
2 10159  10.4807 308.3658 0005627 221.4517 337.1007  1.00342591150566
Source of the keplerian elements: AFSPC